06:51
Airports
History
Links
Donate
Help keep this website running!
PayPal
Bitcoin
Information on this page is community maintained and may be outdated or inaccurate and is intended for reference only or PC simulator navigating.
Always use approved charts for navigating.
CYLW
Kelowna
Kelowna (CYLW)
Kelowna, British Columbia, Canada
(C)
Lat/Lng:49° 57' 22.02" N / 119° 22' 39.93" W
49.956117 / -119.377757
Elevation:1409'ft 429mMSL
ID / ICAO:CYLW
Runways:1
Longest:(16-34) 2,220.9m 7,286ft Asphalt
Controlled:Yes
Distance To
Airport ID:
Airport Radio Frequencies
ATIS: 127.5
Ground: 121.7
Tower: 119.6
Nearby VORs <50NM
Nearby NDBs
METARUpdated 07-28-17 06:00 GMT
Altimeter: 29.93
Visibility: 9.0 statute miles
Wind: 9 knots (140°)
Temp: 23°c 73°f
Humidity: 28.9%

METAR: CYLW 280600Z AUTO 14009KT 9SM CLR 23/04 A2993 RMK TS/LTNG TEMPO UNAVBL SLP129 DENSITY ALT 2600FT

(Powered by phpweather)
Runway 16 / 34
Dimensions:2220.9 x 61m 7286' x 200'ft
Surface:Asphalt
Edge Lights:Medium intensity
Runway 16 [A]Runway 34 [B]
Heading:174°TH 354°TH
Lat:
Lng:
49° 57' 57.88"N
119° 22' 44.91"W
49° 56' 46.16"N
119° 22' 34.94"W
ALS:ODALSODALS
User Notes and Comments
Google Map
Nearby Airports
(U) VERNON 20.3 NM
CYVK N
(U) Penticton 35.5 NM
CYYF (WX) SSW 196°
(U) Douglas Lake 38.6 NM
AL3 WNW 292°
(U) SALMON ARM 50.6 NM
CZAM N
(U) PRINCETON 60.9 NM
CYDC (WX) SW 236°
(U) Merritt 61.8 NM
AD5 W 280°
(U) Dorothy Scott 68.9 NM
0S7 S 181°
VFR Chart
Flight Planning at SkyVector.com